Find Starlink 37275

NORAD ID: 68726 Int'l Des: 2026-081 Owner: SPXS Country: US Constellation: starlink operational
LEOCIRCULAR

实时位置

正在加载3D地球...

关于 Starlink 37275

正在加载描述...

即将过境

Passes for default location (London). Set your location on the main map for personalized predictions.

高度历史

Loading altitude history...

两行轨道根数

1 68726C 26081AC 26105.37618056 .00640370 00000+0 82007-3 0 1054
2 68726 53.1627 238.0361 0006979 305.0237 330.4032 16.06177694 12
Epoch: Apr 15, 2026 • Age: 26 hours

当前状态

高度 251.7 km
速度 7.76 km/s
星下点 2.64°N, 131.7°W
发射日期 Apr 14, 2026
运行时间 2 days
类型 internet

技术详情

分类 Payload
质量 575.00 kg
干质量 530.00 kg
总质量 575.00 kg
长度 0.30 m
直径 4.10 m
跨度 29.00 m
形状 Box + pan
制造商 SPXS
平台类型 Starlink V2MO
阶段状态 In Orbit
所有者/国家 SPXS/US

Most Searched